| time (UTC) | temp F | wind direction | speed knots | gust knots | rain 1hr in | rain 24hr in | rain mn in | humidity % | barometer mb |
| 20260506182432 | 62 | 112 | 1.7 | 1.7 | 0.00 | 0.00 | 0.00 | 93 | 1005.0 |
| 20260506181929 | 62 | 50 | 0.0 | 0.0 | 0.00 | 0.00 | 0.00 | 92 | 1005.0 |
| 20260506181427 | 62 | 132 | 1.7 | 1.7 | 0.00 | 0.00 | 0.00 | 92 | 1005.0 |
| 20260506180924 | 62 | 76 | 0.9 | 0.9 | 0.00 | 0.00 | 0.00 | 92 | 1005.0 |
| 20260506180420 | 62 | 24 | 0.9 | 0.9 | 0.00 | 0.00 | 0.00 | 91 | 1005.4 |
| 20260506175917 | 62 | 85 | 0.9 | 1.7 | 0.00 | 0.00 | 0.00 | 91 | 1005.1 |
| 20260506175414 | 62 | 23 | 0.9 | 0.9 | 0.00 | 0.00 | 0.00 | 91 | 1005.4 |
| 20260506174911 | 62 | 194 | 2.6 | 2.6 | 0.00 | 0.00 | 0.00 | 91 | 1005.5 |
| 20260506174408 | 63 | 128 | 0.9 | 0.9 | 0.00 | 0.00 | 0.00 | 91 | 1005.3 |
| 20260506173905 | 63 | 227 | 2.6 | 4.3 | 0.00 | 0.00 | 0.00 | 90 | 1005.2 |
| 20260506173402 | 63 | 30 | 0.9 | 1.7 | 0.00 | 0.00 | 0.00 | 91 | 1005.2 |
| 20260506172859 | 63 | 202 | 3.5 | 4.3 | 0.00 | 0.00 | 0.00 | 92 | 1005.5 |
| 20260506172355 | 63 | 213 | 2.6 | 2.6 | 0.00 | 0.00 | 0.00 | 91 | 1005.2 |
| 20260506171853 | 63 | 27 | 0.9 | 1.7 | 0.00 | 0.00 | 0.00 | 91 | 1005.1 |
| 20260506171350 | 62 | 193 | 2.6 | 2.6 | 0.00 | 0.00 | 0.00 | 90 | 1005.2 |
| 20260506170848 | 62 | 230 | 1.7 | 2.6 | 0.00 | 0.00 | 0.00 | 90 | 1005.1 |
| 20260506170344 | 62 | 321 | 1.7 | 2.6 | 0.00 | 0.00 | 0.00 | 90 | 1005.3 |
| 20260506165843 | 62 | 218 | 1.7 | 1.7 | 0.00 | 0.00 | 0.00 | 90 | 1005.5 |
| 20260506165341 | 62 | 115 | 3.5 | 4.3 | 0.00 | 0.00 | 0.00 | 90 | 1005.6 |
| 20260506164837 | 62 | 29 | 0.9 | 0.9 | 0.00 | 0.00 | 0.00 | 90 | 1005.7 |
| 20260506164333 | 62 | 2 | 1.7 | 1.7 | 0.00 | 0.00 | 0.00 | 89 | 1006.0 |
| 20260506163831 | 62 | 206 | 2.6 | 2.6 | 0.00 | 0.00 | 0.00 | 89 | 1006.2 |
| 20260506163325 | 62 | 350 | 1.7 | 1.7 | 0.00 | 0.00 | 0.00 | 88 | 1006.5 |
| 20260506162821 | 62 | 241 | 3.5 | 4.3 | 0.00 | 0.00 | 0.00 | 88 | 1006.3 |
| 20260506162320 | 62 | 239 | 0.9 | 1.7 | 0.00 | 0.00 | 0.00 | 88 | 1006.5 |
| 20260506161817 | 63 | 358 | 1.7 | 1.7 | 0.00 | 0.00 | 0.00 | 87 | 1006.4 |
| 20260506161314 | 63 | 38 | 0.9 | 0.9 | 0.00 | 0.00 | 0.00 | 86 | 1006.6 |
| 20260506160811 | 64 | 67 | 0.9 | 0.9 | 0.00 | 0.00 | 0.00 | 85 | 1006.8 |
| 20260506160308 | 64 | 328 | 0.9 | 0.9 | 0.00 | 0.00 | 0.00 | 82 | 1006.8 |
| 20260506155807 | 65 | 231 | 4.3 | 6.1 | 0.00 | 0.00 | 0.00 | 81 | 1006.7 |
| 20260506155306 | 65 | 179 | 2.6 | 2.6 | 0.00 | 0.00 | 0.00 | 80 | 1006.8 |
| 20260506153415 | 67 | 143 | 1.7 | 1.7 | 0.00 | 0.00 | 0.00 | 76 | 1006.7 |
| 20260506152913 | 67 | 214 | 4.3 | 5.2 | 0.00 | 0.00 | 0.00 | 75 | 1006.6 |
| 20260506152410 | 67 | 213 | 4.3 | 6.1 | 0.00 | 0.00 | 0.00 | 75 | 1006.4 |
| 20260506151908 | 67 | 266 | 1.7 | 2.6 | 0.00 | 0.00 | 0.00 | 74 | 1006.5 |
| 20260506151405 | 67 | 216 | 3.5 | 4.3 | 0.00 | 0.00 | 0.00 | 74 | 1006.6 |
| 20260506150902 | 67 | 212 | 2.6 | 2.6 | 0.00 | 0.00 | 0.00 | 74 | 1006.6 |
| 20260506150358 | 67 | 236 | 4.3 | 6.1 | 0.00 | 0.00 | 0.00 | 73 | 1006.8 |
| 20260506145855 | 67 | 222 | 2.6 | 4.3 | 0.00 | 0.00 | 0.00 | 73 | 1006.9 |
| 20260506145351 | 68 | 298 | 2.6 | 4.3 | 0.00 | 0.00 | 0.00 | 71 | 1006.9 |
| 20260506144849 | 68 | 231 | 4.3 | 7.0 | 0.00 | 0.00 | 0.00 | 71 | 1006.9 |
| 20260506144345 | 68 | 222 | 4.3 | 5.2 | 0.00 | 0.00 | 0.00 | 71 | 1006.8 |
| 20260506143844 | 68 | 220 | 2.6 | 2.6 | 0.00 | 0.00 | 0.00 | 72 | 1006.6 |
| 20260506143341 | 68 | 227 | 3.5 | 4.3 | 0.00 | 0.00 | 0.00 | 71 | 1006.7 |
| 20260506142839 | 68 | 218 | 6.1 | 11.3 | 0.00 | 0.00 | 0.00 | 72 | 1007.1 |
| 20260506142337 | 68 | 295 | 2.6 | 2.6 | 0.00 | 0.00 | 0.00 | 71 | 1006.7 |
| 20260506141835 | 67 | 214 | 5.2 | 5.2 | 0.00 | 0.00 | 0.00 | 73 | 1006.6 |
| 20260506141333 | 67 | 193 | 3.5 | 4.3 | 0.00 | 0.00 | 0.00 | 73 | 1006.8 |
| 20260506140830 | 67 | 218 | 1.7 | 1.7 | 0.00 | 0.00 | 0.00 | 73 | 1006.7 |
| 20260506140327 | 66 | 222 | 2.6 | 2.6 | 0.00 | 0.00 | 0.00 | 73 | 1006.9 |
| 20260506135824 | 67 | 235 | 1.7 | 2.6 | 0.00 | 0.00 | 0.00 | 73 | 1006.8 |
| 20260506135320 | 67 | 20 | 1.7 | 1.7 | 0.00 | 0.00 | 0.00 | 74 | 1006.9 |
| 20260506134817 | 67 | 238 | 4.3 | 6.1 | 0.00 | 0.00 | 0.00 | 73 | 1006.8 |
| 20260506134313 | 67 | 217 | 4.3 | 7.8 | 0.00 | 0.00 | 0.00 | 73 | 1006.8 |
| 20260506133810 | 67 | 211 | 3.5 | 4.3 | 0.00 | 0.00 | 0.00 | 73 | 1006.9 |
| 20260506133307 | 67 | 212 | 6.1 | 7.8 | 0.00 | 0.00 | 0.00 | 73 | 1007.0 |
| 20260506132804 | 67 | 202 | 6.1 | 7.0 | 0.00 | 0.00 | 0.00 | 73 | 1007.0 |
| 20260506132301 | 67 | 240 | 1.7 | 1.7 | 0.00 | 0.00 | 0.00 | 74 | 1006.9 |
| 20260506131759 | 67 | 219 | 4.3 | 5.2 | 0.00 | 0.00 | 0.00 | 74 | 1006.9 |
| 20260506131254 | 66 | 221 | 4.3 | 6.1 | 0.00 | 0.00 | 0.00 | 74 | 1006.8 |
| 20260506130752 | 66 | 214 | 4.3 | 4.3 | 0.00 | 0.00 | 0.00 | 74 | 1007.2 |
| 20260506130249 | 66 | 238 | 4.3 | 6.1 | 0.00 | 0.00 | 0.00 | 74 | 1006.9 |
| 20260506125747 | 66 | 214 | 3.5 | 5.2 | 0.00 | 0.00 | 0.00 | 74 | 1006.8 |
| 20260506125244 | 66 | 228 | 3.5 | 5.2 | 0.00 | 0.00 | 0.00 | 74 | 1006.7 |
| 20260506124743 | 66 | 186 | 4.3 | 7.0 | 0.00 | 0.00 | 0.00 | 74 | 1006.7 |
| 20260506124240 | 66 | 222 | 2.6 | 4.3 | 0.00 | 0.00 | 0.00 | 75 | 1006.5 |
| 20260506123737 | 66 | 214 | 2.6 | 4.3 | 0.00 | 0.00 | 0.00 | 74 | 1006.4 |
| 20260506123236 | 66 | 188 | 4.3 | 6.1 | 0.00 | 0.00 | 0.00 | 74 | 1006.6 |
| 20260506122732 | 65 | 205 | 1.7 | 2.6 | 0.00 | 0.00 | 0.00 | 76 | 1006.6 |
| 20260506122229 | 65 | 306 | 2.6 | 2.6 | 0.00 | 0.00 | 0.00 | 76 | 1006.8 |
| 20260506121728 | 65 | 199 | 4.3 | 5.2 | 0.00 | 0.00 | 0.00 | 77 | 1006.8 |
| 20260506121224 | 64 | 200 | 2.6 | 4.3 | 0.00 | 0.00 | 0.00 | 77 | 1007.1 |
| 20260506120722 | 64 | 340 | 1.7 | 1.7 | 0.00 | 0.00 | 0.00 | 78 | 1006.9 |
| 20260506120219 | 64 | 205 | 2.6 | 4.3 | 0.00 | 0.00 | 0.00 | 77 | 1007.1 |
| 20260506115717 | 64 | 122 | 2.6 | 2.6 | 0.00 | 0.00 | 0.00 | 78 | 1006.9 |
| 20260506115215 | 64 | 207 | 1.7 | 2.6 | 0.00 | 0.00 | 0.00 | 78 | 1007.2 |
| 20260506114712 | 65 | 292 | 2.6 | 4.3 | 0.00 | 0.00 | 0.00 | 78 | 1007.2 |
| 20260506114210 | 64 | 230 | 3.5 | 4.3 | 0.00 | 0.00 | 0.00 | 77 | 1007.2 |
| 20260506113708 | 64 | 192 | 5.2 | 7.8 | 0.00 | 0.00 | 0.00 | 78 | 1007.2 |
| 20260506113205 | 64 | 218 | 2.6 | 2.6 | 0.00 | 0.00 | 0.00 | 78 | 1006.9 |
| 20260506112701 | 64 | 246 | 3.5 | 5.2 | 0.00 | 0.00 | 0.00 | 79 | 1007.2 |
| 20260506112159 | 64 | 227 | 2.6 | 2.6 | 0.00 | 0.00 | 0.00 | 79 | 1007.4 |
| 20260506111656 | 64 | 213 | 3.5 | 6.1 | 0.00 | 0.00 | 0.00 | 79 | 1007.1 |
| 20260506111154 | 63 | 203 | 4.3 | 6.1 | 0.00 | 0.00 | 0.00 | 80 | 1007.0 |
| 20260506110651 | 63 | 221 | 2.6 | 4.3 | 0.00 | 0.00 | 0.00 | 80 | 1007.1 |
| 20260506110148 | 63 | 229 | 2.6 | 2.6 | 0.00 | 0.00 | 0.00 | 80 | 1006.8 |
| 20260506105645 | 63 | 228 | 2.6 | 4.3 | 0.00 | 0.00 | 0.00 | 80 | 1006.8 |
| 20260506105141 | 63 | 260 | 3.5 | 5.2 | 0.00 | 0.00 | 0.00 | 81 | 1007.0 |
| 20260506104640 | 63 | 250 | 2.6 | 4.3 | 0.00 | 0.00 | 0.00 | 81 | 1006.8 |
| 20260506104137 | 63 | 200 | 4.3 | 6.1 | 0.00 | 0.00 | 0.00 | 80 | 1006.9 |
| 20260506103634 | 63 | 209 | 3.5 | 4.3 | 0.00 | 0.00 | 0.00 | 80 | 1006.8 |
| 20260506103131 | 63 | 256 | 2.6 | 2.6 | 0.00 | 0.00 | 0.00 | 80 | 1006.7 |
| 20260506102629 | 63 | 237 | 5.2 | 7.0 | 0.00 | 0.00 | 0.00 | 80 | 1007.2 |
| 20260506102126 | 63 | 220 | 6.1 | 7.0 | 0.00 | 0.00 | 0.00 | 81 | 1006.7 |
| 20260506101623 | 63 | 223 | 5.2 | 6.1 | 0.00 | 0.00 | 0.00 | 80 | 1007.0 |
| 20260506101120 | 63 | 328 | 2.6 | 2.6 | 0.00 | 0.00 | 0.00 | 80 | 1006.8 |
| 20260506100619 | 63 | 182 | 2.6 | 2.6 | 0.00 | 0.00 | 0.00 | 81 | 1006.7 |
| 20260506100116 | 63 | 241 | 4.3 | 5.2 | 0.00 | 0.00 | 0.00 | 80 | 1006.7 |
| 20260506095615 | 63 | 204 | 0.9 | 1.7 | 0.00 | 0.00 | 0.00 | 80 | 1006.6 |
| 20260506095111 | 63 | 229 | 4.3 | 6.1 | 0.00 | 0.00 | 0.00 | 80 | 1006.6 |
| 20260506094608 | 63 | 184 | 3.5 | 5.2 | 0.00 | 0.00 | 0.00 | 80 | 1006.7 |
| 20260506094106 | 63 | 237 | 1.7 | 2.6 | 0.00 | 0.00 | 0.00 | 80 | 1006.7 |
| 20260506093604 | 63 | 231 | 4.3 | 7.0 | 0.00 | 0.00 | 0.00 | 81 | 1006.7 |
| 20260506093101 | 63 | 156 | 2.6 | 2.6 | 0.00 | 0.00 | 0.00 | 81 | 1006.7 |
| 20260506092559 | 63 | 217 | 3.5 | 4.3 | 0.00 | 0.00 | 0.00 | 81 | 1006.7 |
| 20260506092055 | 63 | 215 | 4.3 | 5.2 | 0.00 | 0.00 | 0.00 | 81 | 1006.6 |
| 20260506091554 | 63 | 213 | 2.6 | 2.6 | 0.00 | 0.00 | 0.00 | 81 | 1006.8 |
| 20260506091051 | 63 | 218 | 4.3 | 6.1 | 0.00 | 0.00 | 0.00 | 81 | 1006.7 |
| 20260506090549 | 63 | 204 | 4.3 | 5.2 | 0.00 | 0.00 | 0.00 | 81 | 1007.0 |
| 20260506090044 | 63 | 279 | 2.6 | 2.6 | 0.00 | 0.00 | 0.00 | 81 | 1006.8 |
| 20260506085542 | 63 | 233 | 1.7 | 4.3 | 0.00 | 0.00 | 0.00 | 81 | 1006.9 |
| 20260506085038 | 63 | 222 | 3.5 | 4.3 | 0.00 | 0.00 | 0.00 | 81 | 1006.8 |
| 20260506084535 | 63 | 137 | 1.7 | 1.7 | 0.00 | 0.00 | 0.00 | 81 | 1006.9 |
| 20260506084031 | 63 | 180 | 1.7 | 2.6 | 0.00 | 0.00 | 0.00 | 80 | 1006.9 |
| 20260506083529 | 64 | 280 | 2.6 | 4.3 | 0.00 | 0.00 | 0.00 | 80 | 1006.9 |
| 20260506083026 | 64 | 227 | 1.7 | 1.7 | 0.00 | 0.00 | 0.00 | 80 | 1007.0 |
| 20260506082523 | 64 | 228 | 2.6 | 2.6 | 0.00 | 0.00 | 0.00 | 80 | 1006.9 |
| 20260506082018 | 64 | 220 | 3.5 | 5.2 | 0.00 | 0.00 | 0.00 | 79 | 1007.0 |
| 20260506081517 | 64 | 228 | 3.5 | 4.3 | 0.00 | 0.00 | 0.00 | 80 | 1007.1 |
| 20260506081014 | 64 | 220 | 3.5 | 4.3 | 0.00 | 0.00 | 0.00 | 79 | 1006.9 |
| 20260506080511 | 64 | 225 | 2.6 | 2.6 | 0.00 | 0.00 | 0.00 | 79 | 1007.0 |
| 20260506073455 | 64 | 213 | 2.6 | 4.3 | 0.00 | 0.00 | 0.00 | 78 | 1007.1 |
| 20260506072952 | 64 | 227 | 4.3 | 5.2 | 0.00 | 0.00 | 0.00 | 78 | 1006.8 |
| 20260506072449 | 64 | 238 | 2.6 | 4.3 | 0.00 | 0.00 | 0.00 | 78 | 1007.2 |
| 20260506071947 | 64 | 213 | 4.3 | 5.2 | 0.00 | 0.00 | 0.00 | 78 | 1007.2 |
| 20260506071445 | 64 | 233 | 3.5 | 4.3 | 0.00 | 0.00 | 0.00 | 77 | 1007.3 |
| 20260506070941 | 65 | 311 | 2.6 | 2.6 | 0.00 | 0.00 | 0.00 | 77 | 1007.1 |
| 20260506070438 | 65 | 226 | 4.3 | 5.2 | 0.00 | 0.00 | 0.00 | 77 | 1007.1 |
| 20260506062416 | 65 | 200 | 3.5 | 4.3 | 0.00 | 0.00 | 0.00 | 74 | 1007.2 |
| 20260506061912 | 66 | 234 | 3.5 | 4.3 | 0.00 | 0.00 | 0.00 | 74 | 1007.3 |
| 20260506061408 | 65 | 257 | 3.5 | 4.3 | 0.00 | 0.00 | 0.00 | 74 | 1007.3 |
| 20260506060906 | 66 | 231 | 3.5 | 4.3 | 0.00 | 0.00 | 0.00 | 74 | 1007.3 |
| 20260506060404 | 66 | 214 | 4.3 | 6.1 | 0.00 | 0.00 | 0.00 | 73 | 1007.4 |
| 20260506051336 | 66 | 193 | 1.7 | 1.7 | 0.00 | 0.00 | 0.00 | 71 | 1007.9 |
| 20260506050833 | 66 | 234 | 2.6 | 2.6 | 0.00 | 0.00 | 0.00 | 71 | 1007.8 |
| 20260506050331 | 66 | 226 | 3.5 | 4.3 | 0.00 | 0.00 | 0.00 | 71 | 1008.0 |
| 20260506044821 | 66 | 208 | 2.6 | 2.6 | 0.00 | 0.00 | 0.00 | 70 | 1008.0 |
| 20260506044319 | 66 | 229 | 4.3 | 5.2 | 0.00 | 0.00 | 0.00 | 69 | 1007.9 |
| 20260506043816 | 66 | 192 | 2.6 | 2.6 | 0.00 | 0.00 | 0.00 | 69 | 1007.6 |
| 20260506043313 | 66 | 219 | 2.6 | 2.6 | 0.00 | 0.00 | 0.00 | 69 | 1007.8 |
| 20260506042812 | 66 | 276 | 2.6 | 2.6 | 0.00 | 0.00 | 0.00 | 69 | 1007.7 |
| 20260506042310 | 66 | 213 | 2.6 | 2.6 | 0.00 | 0.00 | 0.00 | 68 | 1007.9 |
| 20260506041808 | 67 | 238 | 1.7 | 2.6 | 0.00 | 0.00 | 0.00 | 68 | 1008.0 |
| 20260506041305 | 66 | 215 | 3.5 | 4.3 | 0.00 | 0.00 | 0.00 | 68 | 1007.7 |
| 20260506040802 | 66 | 233 | 2.6 | 4.3 | 0.00 | 0.00 | 0.00 | 68 | 1007.9 |
| 20260506040259 | 67 | 232 | 5.2 | 6.1 | 0.00 | 0.00 | 0.00 | 67 | 1007.7 |
| 20260506035756 | 67 | 217 | 2.6 | 2.6 | 0.00 | 0.00 | 0.00 | 67 | 1007.8 |
| 20260506035253 | 67 | 210 | 2.6 | 4.3 | 0.00 | 0.00 | 0.00 | 67 | 1007.7 |
| 20260506034750 | 67 | 223 | 2.6 | 2.6 | 0.00 | 0.00 | 0.00 | 66 | 1007.7 |
| 20260506034248 | 67 | 202 | 4.3 | 4.3 | 0.00 | 0.00 | 0.00 | 66 | 1007.8 |
| 20260506033744 | 67 | 204 | 3.5 | 4.3 | 0.00 | 0.00 | 0.00 | 66 | 1007.7 |
| 20260506033241 | 67 | 193 | 3.5 | 5.2 | 0.00 | 0.00 | 0.00 | 65 | 1007.9 |
| 20260506032738 | 67 | 211 | 2.6 | 2.6 | 0.00 | 0.00 | 0.00 | 65 | 1007.9 |
| 20260506032235 | 67 | 217 | 4.3 | 6.1 | 0.00 | 0.00 | 0.00 | 65 | 1007.8 |
| 20260506031732 | 67 | 213 | 2.6 | 4.3 | 0.00 | 0.00 | 0.00 | 65 | 1007.7 |
| 20260506031229 | 68 | 260 | 2.6 | 2.6 | 0.00 | 0.00 | 0.00 | 64 | 1007.8 |
| 20260506030727 | 68 | 223 | 4.3 | 7.0 | 0.00 | 0.00 | 0.00 | 64 | 1008.0 |
| 20260506030225 | 68 | 210 | 3.5 | 6.1 | 0.00 | 0.00 | 0.00 | 64 | 1007.9 |
| 20260506025721 | 68 | 220 | 3.5 | 4.3 | 0.00 | 0.00 | 0.00 | 64 | 1007.8 |
| 20260506025217 | 68 | 295 | 2.6 | 4.3 | 0.00 | 0.00 | 0.00 | 64 | 1007.7 |
| 20260506024714 | 68 | 279 | 4.3 | 6.1 | 0.00 | 0.00 | 0.00 | 63 | 1007.7 |
| 20260506024211 | 68 | 255 | 4.3 | 5.2 | 0.00 | 0.00 | 0.00 | 63 | 1007.7 |
| 20260506023708 | 68 | 355 | 1.7 | 1.7 | 0.00 | 0.00 | 0.00 | 63 | 1007.9 |
| 20260506023205 | 69 | 200 | 4.3 | 5.2 | 0.00 | 0.00 | 0.00 | 63 | 1007.9 |
| 20260506022702 | 69 | 227 | 5.2 | 6.1 | 0.00 | 0.00 | 0.00 | 62 | 1007.7 |
| 20260506022159 | 69 | 268 | 7.0 | 7.8 | 0.00 | 0.00 | 0.00 | 61 | 1007.9 |
| 20260506021657 | 70 | 288 | 1.7 | 1.7 | 0.00 | 0.00 | 0.00 | 60 | 1007.6 |
| 20260506021154 | 70 | 239 | 3.5 | 4.3 | 0.00 | 0.00 | 0.00 | 59 | 1007.8 |
| 20260506020651 | 70 | 198 | 3.5 | 5.2 | 0.00 | 0.00 | 0.00 | 58 | 1007.6 |
| 20260506020148 | 71 | 145 | 2.6 | 2.6 | 0.00 | 0.00 | 0.00 | 57 | 1007.5 |
| 20260506015646 | 71 | 19 | 0.9 | 1.7 | 0.00 | 0.00 | 0.00 | 57 | 1007.7 |
| 20260506015143 | 71 | 226 | 2.6 | 2.6 | 0.00 | 0.00 | 0.00 | 56 | 1007.4 |
| 20260506014641 | 71 | 316 | 2.6 | 2.6 | 0.00 | 0.00 | 0.00 | 55 | 1007.3 |
| 20260506014136 | 72 | 218 | 4.3 | 5.2 | 0.00 | 0.00 | 0.00 | 54 | 1007.6 |
| 20260506013634 | 72 | 217 | 5.2 | 6.1 | 0.00 | 0.00 | 0.00 | 54 | 1007.5 |
| 20260506013131 | 72 | 211 | 3.5 | 4.3 | 0.00 | 0.00 | 0.00 | 52 | 1007.2 |
| 20260506012627 | 72 | 210 | 3.5 | 5.2 | 0.00 | 0.00 | 0.00 | 52 | 1007.3 |
| 20260506012124 | 73 | 223 | 3.5 | 5.2 | 0.00 | 0.00 | 0.00 | 51 | 1007.3 |
| 20260506011622 | 73 | 230 | 3.5 | 4.3 | 0.00 | 0.00 | 0.00 | 50 | 1007.1 |
| 20260506011118 | 73 | 221 | 5.2 | 7.0 | 0.00 | 0.00 | 0.00 | 48 | 1007.2 |
| 20260506010617 | 73 | 160 | 2.6 | 4.3 | 0.00 | 0.00 | 0.00 | 47 | 1007.1 |
| 20260506010402 | 74 | 218 | 2.6 | 2.6 | 0.00 | 0.00 | 0.00 | 47 | 1007.0 |
| 20260506005858 | 74 | 220 | 4.3 | 7.0 | 0.00 | 0.00 | 0.00 | 46 | 1007.2 |
| 20260506005355 | 74 | 308 | 1.7 | 1.7 | 0.00 | 0.00 | 0.00 | 46 | 1006.7 |
| 20260506004851 | 74 | 2 | 1.7 | 1.7 | 0.00 | 0.00 | 0.00 | 46 | 1006.7 |
| 20260506004349 | 75 | 191 | 3.5 | 4.3 | 0.00 | 0.00 | 0.00 | 46 | 1006.7 |
| 20260506003844 | 75 | 352 | 0.9 | 0.9 | 0.00 | 0.00 | 0.00 | 45 | 1006.6 |
| 20260506003341 | 75 | 185 | 1.7 | 1.7 | 0.00 | 0.00 | 0.00 | 45 | 1006.6 |
| 20260506002838 | 75 | 211 | 3.5 | 4.3 | 0.00 | 0.00 | 0.00 | 45 | 1006.7 |
| 20260506002334 | 75 | 291 | 3.5 | 5.2 | 0.00 | 0.00 | 0.00 | 44 | 1006.7 |
| 20260506001829 | 75 | 217 | 2.6 | 4.3 | 0.00 | 0.00 | 0.00 | 44 | 1006.5 |
| 20260506001327 | 76 | 211 | 3.5 | 4.3 | 0.00 | 0.00 | 0.00 | 43 | 1006.6 |
| 20260506000824 | 76 | 195 | 2.6 | 2.6 | 0.00 | 0.00 | 0.00 | 43 | 1006.3 |
| 20260506000323 | 76 | 276 | 4.3 | 6.1 | 0.00 | 0.00 | 0.00 | 42 | 1006.3 |
| 20260505235818 | 76 | 227 | 3.5 | 5.2 | 0.00 | 0.00 | 0.00 | 41 | 1006.5 |
| 20260505235316 | 76 | 213 | 3.5 | 4.3 | 0.00 | 0.00 | 0.00 | 41 | 1006.3 |
| 20260505234813 | 77 | 213 | 4.3 | 6.1 | 0.00 | 0.00 | 0.00 | 40 | 1006.3 |
| 20260505234310 | 77 | 216 | 2.6 | 2.6 | 0.00 | 0.00 | 0.00 | 39 | 1006.2 |
| 20260505233807 | 77 | 203 | 5.2 | 7.0 | 0.00 | 0.00 | 0.00 | 38 | 1006.2 |
| 20260505233305 | 77 | 354 | 1.7 | 2.6 | 0.00 | 0.00 | 0.00 | 38 | 1006.2 |
| 20260505232802 | 78 | 236 | 2.6 | 2.6 | 0.00 | 0.00 | 0.00 | 37 | 1005.9 |
| 20260505232259 | 78 | 224 | 6.1 | 7.0 | 0.00 | 0.00 | 0.00 | 36 | 1006.1 |
| 20260505231755 | 78 | 216 | 4.3 | 5.2 | 0.00 | 0.00 | 0.00 | 36 | 1006.0 |
| 20260505231254 | 78 | 242 | 2.6 | 2.6 | 0.00 | 0.00 | 0.00 | 35 | 1005.9 |
| 20260505230752 | 78 | 198 | 3.5 | 4.3 | 0.00 | 0.00 | 0.00 | 35 | 1005.7 |
| 20260505230249 | 78 | 286 | 2.6 | 2.6 | 0.00 | 0.00 | 0.00 | 36 | 1005.8 |
| 20260505225745 | 78 | 224 | 3.5 | 5.2 | 0.00 | 0.00 | 0.00 | 36 | 1005.5 |
| 20260505225243 | 78 | 204 | 4.3 | 5.2 | 0.00 | 0.00 | 0.00 | 35 | 1005.8 |
| 20260505224737 | 78 | 223 | 3.5 | 5.2 | 0.00 | 0.00 | 0.00 | 35 | 1005.6 |
| 20260505224235 | 78 | 209 | 3.5 | 4.3 | 0.00 | 0.00 | 0.00 | 36 | 1005.5 |
| 20260505223733 | 78 | 222 | 1.7 | 1.7 | 0.00 | 0.00 | 0.00 | 34 | 1005.5 |
| 20260505223229 | 78 | 229 | 6.1 | 8.7 | 0.00 | 0.00 | 0.00 | 33 | 1005.4 |
| 20260505222725 | 78 | 271 | 7.0 | 8.7 | 0.00 | 0.00 | 0.00 | 33 | 1005.8 |
| 20260505222221 | 78 | 32 | 0.9 | 0.9 | 0.00 | 0.00 | 0.00 | 33 | 1005.9 |
| 20260505221719 | 79 | 39 | 0.9 | 1.7 | 0.00 | 0.00 | 0.00 | 33 | 1005.6 |
| 20260505221215 | 79 | 193 | 2.6 | 2.6 | 0.00 | 0.00 | 0.00 | 33 | 1005.7 |
| 20260505220712 | 79 | 232 | 3.5 | 4.3 | 0.00 | 0.00 | 0.00 | 31 | 1005.5 |
| 20260505220210 | 79 | 227 | 7.8 | 9.6 | 0.00 | 0.00 | 0.00 | 31 | 1005.7 |
| 20260505215708 | 79 | 210 | 4.3 | 7.8 | 0.00 | 0.00 | 0.00 | 31 | 1005.5 |
| 20260505215205 | 79 | 227 | 6.1 | 7.8 | 0.00 | 0.00 | 0.00 | 31 | 1005.3 |
| 20260505214703 | 79 | 336 | 2.6 | 4.3 | 0.00 | 0.00 | 0.00 | 31 | 1005.3 |
| 20260505214200 | 80 | 219 | 4.3 | 6.1 | 0.00 | 0.00 | 0.00 | 32 | 1005.3 |
| 20260505213657 | 81 | 247 | 1.7 | 1.7 | 0.00 | 0.00 | 0.00 | 31 | 1005.1 |
| 20260505213154 | 81 | 210 | 7.0 | 7.8 | 0.00 | 0.00 | 0.00 | 31 | 1005.1 |
| 20260505212650 | 81 | 205 | 2.6 | 4.3 | 0.00 | 0.00 | 0.00 | 31 | 1005.2 |
| 20260505212148 | 81 | 5 | 0.9 | 0.9 | 0.00 | 0.00 | 0.00 | 30 | 1005.0 |
| 20260505211644 | 81 | 275 | 3.5 | 6.1 | 0.00 | 0.00 | 0.00 | 30 | 1005.0 |
| 20260505211142 | 81 | 226 | 6.1 | 7.0 | 0.00 | 0.00 | 0.00 | 31 | 1005.2 |
| 20260505210638 | 80 | 208 | 2.6 | 2.6 | 0.00 | 0.00 | 0.00 | 31 | 1005.1 |
| 20260505210135 | 80 | 325 | 3.5 | 5.2 | 0.00 | 0.00 | 0.00 | 32 | 1004.9 |
| 20260505205632 | 80 | 296 | 3.5 | 4.3 | 0.00 | 0.00 | 0.00 | 33 | 1005.2 |
| 20260505205131 | 80 | 239 | 2.6 | 4.3 | 0.00 | 0.00 | 0.00 | 33 | 1005.0 |
| 20260505204627 | 80 | 248 | 6.1 | 7.0 | 0.00 | 0.00 | 0.00 | 32 | 1005.1 |
| 20260505204125 | 81 | 230 | 9.6 | 12.2 | 0.00 | 0.00 | 0.00 | 33 | 1005.0 |
| 20260505203621 | 81 | 291 | 1.7 | 1.7 | 0.00 | 0.00 | 0.00 | 34 | 1005.0 |
| 20260505203119 | 81 | 172 | 2.6 | 2.6 | 0.00 | 0.00 | 0.00 | 34 | 1004.9 |
| 20260505202614 | 81 | 219 | 6.1 | 8.7 | 0.00 | 0.00 | 0.00 | 33 | 1005.3 |
| 20260505202110 | 81 | 217 | 3.5 | 4.3 | 0.00 | 0.00 | 0.00 | 35 | 1005.1 |
| 20260505201607 | 81 | 214 | 5.2 | 6.1 | 0.00 | 0.00 | 0.00 | 33 | 1005.0 |
| 20260505201105 | 82 | 216 | 5.2 | 7.0 | 0.00 | 0.00 | 0.00 | 36 | 1004.9 |
| 20260505200603 | 81 | 315 | 6.1 | 7.0 | 0.00 | 0.00 | 0.00 | 34 | 1005.0 |
| 20260505200059 | 81 | 227 | 9.6 | 13.0 | 0.00 | 0.00 | 0.00 | 34 | 1005.2 |
| 20260505195555 | 81 | 216 | 5.2 | 6.1 | 0.00 | 0.00 | 0.00 | 35 | 1005.0 |
| 20260505195053 | 81 | 210 | 5.2 | 7.0 | 0.00 | 0.00 | 0.00 | 35 | 1005.4 |
| 20260505194550 | 81 | 204 | 5.2 | 6.1 | 0.00 | 0.00 | 0.00 | 34 | 1005.4 |
| 20260505194045 | 81 | 324 | 3.5 | 5.2 | 0.00 | 0.00 | 0.00 | 35 | 1005.3 |
| 20260505193543 | 82 | 221 | 5.2 | 7.0 | 0.00 | 0.00 | 0.00 | 34 | 1005.6 |
| 20260505193040 | 81 | 226 | 2.6 | 4.3 | 0.00 | 0.00 | 0.00 | 35 | 1005.5 |
| 20260505192539 | 81 | 232 | 5.2 | 7.8 | 0.00 | 0.00 | 0.00 | 35 | 1005.7 |
| 20260505192036 | 81 | 289 | 3.5 | 6.1 | 0.00 | 0.00 | 0.00 | 36 | 1005.7 |
| 20260505191534 | 81 | 217 | 7.0 | 8.7 | 0.00 | 0.00 | 0.00 | 35 | 1006.0 |
| 20260505191031 | 81 | 287 | 1.7 | 1.7 | 0.00 | 0.00 | 0.00 | 36 | 1005.8 |
| 20260505190526 | 81 | 215 | 5.2 | 7.0 | 0.00 | 0.00 | 0.00 | 37 | 1006.0 |
| 20260505190022 | 81 | 305 | 2.6 | 5.2 | 0.00 | 0.00 | 0.00 | 40 | 1006.1 |
| 20260505185519 | 80 | 220 | 7.0 | 8.7 | 0.00 | 0.00 | 0.00 | 37 | 1005.9 |
| 20260505185015 | 81 | 207 | 8.7 | 12.2 | 0.00 | 0.00 | 0.00 | 38 | 1005.9 |
| 20260505184513 | 81 | 222 | 7.8 | 9.6 | 0.00 | 0.00 | 0.00 | 36 | 1006.2 |
| 20260505184009 | 81 | 352 | 2.6 | 4.3 | 0.00 | 0.00 | 0.00 | 39 | 1006.3 |
| 20260505183506 | 81 | 282 | 4.3 | 5.2 | 0.00 | 0.00 | 0.00 | 36 | 1006.4 |
| 20260505183003 | 81 | 219 | 4.3 | 7.0 | 0.00 | 0.00 | 0.00 | 39 | 1006.3 |